LZB8174 HESH-LBSF

Flight info

Callsign LZB8174
Flight time 2h 52m
Altitude 34000
Route KAPIT L677 CVO L617 NOZ L551 ANTAR/N0454F360 UN133 PEREN UL863 EVIVI Y94 VANET
Aircraft A320/M-SDE3FGHIRWY/LB1

Departure

Time 2026-04-28 12:45
Airport Sharm El Sheikh International Airport (HESH)

Arrival

Time 2026-04-28 15:38
Airport Sofia Airport (LBSF)
Time Latitude Longitude Altitude Speed Heading
2026-04-28 12:35 27.97806 34.38705 121 ft 0 kts 132°
2026-04-28 12:41 27.97813 34.38696 172 ft 2 kts 133°
2026-04-28 12:41 27.97824 34.38683 172 ft 2 kts 136°
2026-04-28 12:41 27.97836 34.38670 172 ft 2 kts 156°
2026-04-28 12:41 27.97851 34.38670 172 ft 1 kts 223°
2026-04-28 12:42 27.97852 34.38671 172 ft 0 kts 223°
2026-04-28 12:42 27.97813 34.38631 172 ft 14 kts 222°
2026-04-28 12:42 27.97739 34.38553 172 ft 19 kts 223°
2026-04-28 12:42 27.97621 34.38431 172 ft 24 kts 222°
2026-04-28 12:43 27.97531 34.38435 172 ft 19 kts 133°
2026-04-28 12:43 27.97433 34.38542 172 ft 11 kts 166°
2026-04-28 12:43 27.97365 34.38487 172 ft 24 kts 221°
2026-04-28 12:43 27.97221 34.38338 172 ft 29 kts 223°
2026-04-28 12:44 27.97072 34.38181 172 ft 30 kts 222°
2026-04-28 12:44 27.96956 34.38157 173 ft 18 kts 134°
2026-04-28 12:44 27.96879 34.38276 173 ft 11 kts 79°
2026-04-28 12:44 27.96937 34.38343 173 ft 19 kts 44°
2026-04-28 12:45 27.97215 34.38634 174 ft 88 kts 43°
2026-04-28 12:45 27.97816 34.39258 174 ft 144 kts 43°
2026-04-28 12:45 27.98646 34.40128 354 ft 172 kts 43°
2026-04-28 12:45 27.99588 34.41001 952 ft 178 kts 32°
2026-04-28 12:46 28.00672 34.41668 1726 ft 177 kts 26°
2026-04-28 12:46 28.01810 34.42295 2116 ft 191 kts 25°
2026-04-28 12:46 28.03081 34.42980 2358 ft 215 kts 24°
2026-04-28 12:46 28.04513 34.43751 2718 ft 240 kts 25°
2026-04-28 12:47 28.06086 34.44601 3137 ft 259 kts 25°
2026-04-28 12:47 28.07729 34.45497 3909 ft 263 kts 25°
2026-04-28 12:47 28.09382 34.46397 4773 ft 264 kts 25°
2026-04-28 12:47 28.11043 34.47303 5586 ft 266 kts 25°
2026-04-28 12:48 28.12753 34.48094 6396 ft 267 kts 13°
2026-04-28 12:48 28.14592 34.48386 7112 ft 269 kts
2026-04-28 12:48 28.16480 34.48412 7827 ft 273 kts 360°
2026-04-28 12:48 28.18399 34.48439 8534 ft 278 kts 360°
2026-04-28 12:49 28.20344 34.48360 9227 ft 282 kts 349°
2026-04-28 12:49 28.22194 34.47610 9910 ft 286 kts 328°
2026-04-28 12:49 28.23744 34.46140 10264 ft 302 kts 308°
2026-04-28 12:49 28.24830 34.44000 10421 ft 325 kts 295°
2026-04-28 12:50 28.25827 34.41617 10720 ft 341 kts 295°
2026-04-28 12:50 28.26850 34.39163 11321 ft 346 kts 295°
2026-04-28 12:50 28.27888 34.36688 11993 ft 349 kts 295°
2026-04-28 12:50 28.28941 34.34194 12622 ft 352 kts 295°
2026-04-28 12:51 28.30007 34.31680 13287 ft 355 kts 295°
2026-04-28 12:51 28.31083 34.29144 13928 ft 359 kts 295°
2026-04-28 12:51 28.32175 34.26579 14536 ft 362 kts 295°
2026-04-28 12:51 28.33269 34.24000 15129 ft 365 kts 294°
2026-04-28 12:52 28.34370 34.21399 15704 ft 366 kts 294°
2026-04-28 12:52 28.35475 34.18784 16315 ft 368 kts 294°
2026-04-28 12:52 28.36585 34.16155 16925 ft 370 kts 294°
2026-04-28 12:52 28.37699 34.13519 17533 ft 371 kts 294°
2026-04-28 12:53 28.38818 34.10871 18102 ft 373 kts 294°
2026-04-28 12:53 28.39943 34.08206 18578 ft 375 kts 294°
2026-04-28 12:53 28.41074 34.05525 19069 ft 377 kts 294°
2026-04-28 12:53 28.41825 34.03744 19409 ft 378 kts 293°
2026-04-28 12:54 28.43348 34.00130 20099 ft 380 kts 293°
2026-04-28 12:54 28.44493 33.97414 20601 ft 382 kts 293°
2026-04-28 12:54 28.45641 33.94676 21068 ft 385 kts 293°
2026-04-28 12:54 28.46793 33.91927 21546 ft 387 kts 293°
2026-04-28 12:55 28.47956 33.89160 22043 ft 388 kts 292°
2026-04-28 12:55 28.49124 33.86385 22527 ft 390 kts 292°
2026-04-28 12:55 28.50295 33.83598 22990 ft 392 kts 293°
2026-04-28 12:55 28.51471 33.80794 23466 ft 394 kts 292°
2026-04-28 12:56 28.52651 33.77971 23834 ft 397 kts 292°
2026-04-28 12:56 28.53837 33.75132 24192 ft 398 kts 292°
2026-04-28 12:56 28.55030 33.72283 24554 ft 399 kts 292°
2026-04-28 12:56 28.56226 33.69427 24910 ft 401 kts 292°
2026-04-28 12:57 28.57427 33.66556 25250 ft 402 kts 292°
2026-04-28 12:57 28.58629 33.63679 25584 ft 403 kts 292°
2026-04-28 12:57 28.59831 33.60793 25909 ft 405 kts 292°
2026-04-28 12:57 28.61037 33.57891 26258 ft 406 kts 292°
2026-04-28 12:58 28.62253 33.54982 26575 ft 408 kts 294°
2026-04-28 12:58 28.63743 33.52202 26893 ft 414 kts 303°
2026-04-28 12:58 28.65548 33.49636 27210 ft 416 kts 305°
2026-04-28 12:58 28.67374 33.47074 27515 ft 418 kts 305°
2026-04-28 12:59 28.69203 33.44497 27801 ft 419 kts 305°
2026-04-28 12:59 28.71036 33.41908 28080 ft 420 kts 305°
2026-04-28 12:59 28.72872 33.39312 28356 ft 422 kts 305°
2026-04-28 12:59 28.74692 33.36740 28619 ft 423 kts 305°
2026-04-28 13:00 28.76541 33.34125 28872 ft 424 kts 305°
2026-04-28 13:00 28.78392 33.31501 29114 ft 425 kts 305°
2026-04-28 13:00 28.80249 33.28865 29348 ft 427 kts 305°
2026-04-28 13:00 28.82109 33.26226 29574 ft 428 kts 305°
2026-04-28 13:01 28.83977 33.23575 29797 ft 429 kts 305°
2026-04-28 13:01 28.85852 33.20923 30065 ft 429 kts 305°
2026-04-28 13:01 28.87724 33.18281 30344 ft 427 kts 305°
2026-04-28 13:01 28.89581 33.15641 30618 ft 426 kts 304°
2026-04-28 13:02 28.91427 33.13009 30885 ft 424 kts 304°
2026-04-28 13:02 28.93265 33.10387 31150 ft 423 kts 304°
2026-04-28 13:02 28.95103 33.07770 31414 ft 421 kts 304°
2026-04-28 13:02 28.96933 33.05162 31668 ft 420 kts 304°
2026-04-28 13:03 28.98755 33.02562 31931 ft 419 kts 304°
2026-04-28 13:03 29.00573 32.99967 32196 ft 418 kts 304°
2026-04-28 13:03 29.02386 32.97380 32457 ft 416 kts 304°
2026-04-28 13:03 29.04198 32.94807 32721 ft 415 kts 304°
2026-04-28 13:04 29.06003 32.92237 32982 ft 414 kts 304°
2026-04-28 13:04 29.07794 32.89673 33261 ft 412 kts 303°
2026-04-28 13:04 29.09578 32.87109 33511 ft 411 kts 303°
2026-04-28 13:04 29.11353 32.84560 33783 ft 410 kts 303°
2026-04-28 13:05 29.13133 32.82018 33942 ft 409 kts 303°
2026-04-28 13:05 29.16665 32.76969 33980 ft 404 kts 303°
2026-04-28 13:06 29.20167 32.71922 33984 ft 406 kts 303°
2026-04-28 13:06 29.23088 32.67722 33989 ft 406 kts 303°
2026-04-28 13:07 29.26606 32.62667 33992 ft 406 kts 303°
2026-04-28 13:07 29.30116 32.57606 34000 ft 406 kts 303°
2026-04-28 13:08 29.33596 32.52519 34009 ft 406 kts 303°
2026-04-28 13:08 29.37084 32.47429 34015 ft 406 kts 303°
2026-04-28 13:09 29.40581 32.42337 34021 ft 406 kts 303°
2026-04-28 13:09 29.43801 32.37609 34025 ft 403 kts 296°
2026-04-28 13:09 29.44797 32.34884 34495 ft 367 kts 270°
2026-04-28 13:10 29.44278 32.32371 36817 ft 294 kts 242°
2026-04-28 13:10 29.42884 32.30852 38757 ft 276 kts 221°
2026-04-28 13:10 29.40958 32.30103 38223 ft 321 kts 199°
2026-04-28 13:10 29.38480 32.30251 35839 ft 414 kts 172°
2026-04-28 13:11 29.35738 32.31986 34176 ft 478 kts 139°
2026-04-28 13:11 29.33964 32.35152 34582 ft 466 kts 108°
2026-04-28 13:11 29.33569 32.38617 35987 ft 426 kts 82°
2026-04-28 13:11 29.34232 32.41908 36402 ft 410 kts 58°
2026-04-28 13:12 29.35782 32.44640 35262 ft 426 kts 34°
2026-04-28 13:12 29.38341 32.46428 34161 ft 423 kts
2026-04-28 13:12 29.41099 32.46501 34502 ft 374 kts 333°
2026-04-28 13:12 29.43418 32.45353 34359 ft 359 kts 317°
2026-04-28 13:13 29.45174 32.43394 34010 ft 358 kts 300°
2026-04-28 13:13 29.48042 32.38611 34021 ft 369 kts 299°
2026-04-28 13:14 29.50970 32.33638 34022 ft 383 kts 299°
2026-04-28 13:14 29.53994 32.28486 34026 ft 395 kts 299°
2026-04-28 13:15 29.57092 32.23190 34028 ft 402 kts 300°
2026-04-28 13:15 29.60223 32.17868 34031 ft 402 kts 300°
2026-04-28 13:16 29.63352 32.12532 34036 ft 402 kts 300°
2026-04-28 13:16 29.66475 32.07194 34035 ft 402 kts 300°
2026-04-28 13:17 29.69600 32.01850 34042 ft 402 kts 300°
2026-04-28 13:17 29.72713 31.96502 34046 ft 402 kts 300°
2026-04-28 13:18 29.75827 31.91155 34052 ft 402 kts 300°
2026-04-28 13:18 29.78945 31.85806 34054 ft 403 kts 301°
2026-04-28 13:19 29.82244 31.80583 34053 ft 404 kts 302°
2026-04-28 13:19 29.85519 31.75606 34202 ft 405 kts 303°
2026-04-28 13:19 29.87210 31.73022 34416 ft 404 kts 302°
2026-04-28 13:20 29.88868 31.70463 34631 ft 402 kts 302°
2026-04-28 13:20 29.90550 31.67845 34862 ft 401 kts 302°
2026-04-28 13:20 29.92200 31.65261 35070 ft 399 kts 302°
2026-04-28 13:20 29.93828 31.62725 35267 ft 398 kts 302°
2026-04-28 13:21 29.95479 31.60162 35464 ft 397 kts 302°
2026-04-28 13:21 29.97128 31.57610 35618 ft 396 kts 302°
2026-04-28 13:21 29.98766 31.55077 35802 ft 395 kts 302°
2026-04-28 13:21 30.00410 31.52535 35938 ft 395 kts 302°
2026-04-28 13:22 30.02049 31.49998 35977 ft 394 kts 302°
2026-04-28 13:22 30.05323 31.44920 35976 ft 394 kts 302°
2026-04-28 13:23 30.08590 31.39854 35977 ft 394 kts 303°
2026-04-28 13:23 30.12507 31.35331 35974 ft 400 kts 311°
2026-04-28 13:24 30.16591 31.30956 35979 ft 400 kts 311°
2026-04-28 13:24 30.20668 31.26570 35987 ft 400 kts 311°
2026-04-28 13:25 30.24750 31.22182 35998 ft 401 kts 311°
2026-04-28 13:25 30.28833 31.17784 36008 ft 402 kts 311°
2026-04-28 13:26 30.32919 31.13381 36019 ft 401 kts 311°
2026-04-28 13:26 30.37007 31.08978 36020 ft 401 kts 311°
2026-04-28 13:27 30.41086 31.04567 36016 ft 401 kts 311°
2026-04-28 13:27 30.45165 31.00145 36013 ft 402 kts 311°
2026-04-28 13:28 30.49247 30.95719 36015 ft 402 kts 311°
2026-04-28 13:28 30.53337 30.91293 36017 ft 402 kts 311°
2026-04-28 13:29 30.57432 30.86852 36021 ft 402 kts 311°
2026-04-28 13:29 30.61516 30.82407 36023 ft 403 kts 311°
2026-04-28 13:30 30.65603 30.77962 36023 ft 403 kts 311°
2026-04-28 13:31 30.75799 30.66839 36034 ft 403 kts 311°
2026-04-28 13:31 30.79887 30.62373 36033 ft 404 kts 311°
2026-04-28 13:32 30.83985 30.57890 36036 ft 404 kts 311°
2026-04-28 13:32 30.86411 30.55227 36035 ft 404 kts 311°
2026-04-28 13:33 30.92353 30.48711 36045 ft 404 kts 311°
2026-04-28 13:34 31.00169 30.40117 36052 ft 404 kts 311°
2026-04-28 13:34 31.04251 30.35615 36056 ft 404 kts 311°
2026-04-28 13:35 31.08121 30.30971 36058 ft 398 kts 302°
2026-04-28 13:35 31.10544 30.25279 36052 ft 391 kts 286°
2026-04-28 13:36 31.12194 30.19227 36055 ft 392 kts 286°
2026-04-28 13:36 31.13845 30.13167 36053 ft 392 kts 286°
2026-04-28 13:37 31.15494 30.07095 36051 ft 392 kts 286°
2026-04-28 13:37 31.17142 30.01032 36056 ft 392 kts 287°
2026-04-28 13:38 31.19832 29.95485 36048 ft 399 kts 308°
2026-04-28 13:38 31.21899 29.93288 36055 ft 407 kts 319°
2026-04-28 13:38 31.24321 29.91598 36048 ft 413 kts 325°
2026-04-28 13:39 31.29395 29.88442 36056 ft 413 kts 325°
2026-04-28 13:39 31.34480 29.85272 36061 ft 414 kts 325°
2026-04-28 13:40 31.39559 29.82088 36063 ft 414 kts 325°
2026-04-28 13:40 31.44645 29.78893 36067 ft 415 kts 325°
2026-04-28 13:41 31.49732 29.75695 36066 ft 415 kts 325°
2026-04-28 13:41 31.54787 29.72521 36067 ft 415 kts 325°
2026-04-28 13:42 31.59874 29.69322 36066 ft 415 kts 325°
2026-04-28 13:42 31.64962 29.66116 36061 ft 415 kts 325°
2026-04-28 13:43 31.70046 29.62901 36063 ft 415 kts 325°
2026-04-28 13:43 31.75136 29.59684 36059 ft 415 kts 326°
2026-04-28 13:44 31.80223 29.56472 36061 ft 415 kts 326°
2026-04-28 13:44 31.85275 29.53275 36061 ft 415 kts 326°
2026-04-28 13:45 31.90365 29.50054 36061 ft 415 kts 326°
2026-04-28 13:45 31.95457 29.46822 36056 ft 415 kts 326°
2026-04-28 13:46 32.00540 29.43585 36057 ft 416 kts 326°
2026-04-28 13:46 32.05628 29.40346 36053 ft 416 kts 326°
2026-04-28 13:47 32.10718 29.37109 36058 ft 416 kts 326°
2026-04-28 13:47 32.15805 29.33862 36054 ft 416 kts 326°
2026-04-28 13:48 32.20866 29.30633 36053 ft 416 kts 326°
2026-04-28 13:48 32.25959 29.27370 36054 ft 416 kts 326°
2026-04-28 13:49 32.31049 29.24098 36056 ft 416 kts 326°
2026-04-28 13:49 32.36140 29.20828 36052 ft 416 kts 326°
2026-04-28 13:50 32.41231 29.17564 36055 ft 417 kts 326°
2026-04-28 13:50 32.46329 29.14292 36054 ft 417 kts 326°
2026-04-28 13:51 32.51427 29.11008 36053 ft 417 kts 326°
2026-04-28 13:51 32.56523 29.07711 36045 ft 417 kts 326°
2026-04-28 13:52 32.61588 29.04433 36049 ft 418 kts 326°
2026-04-28 13:52 32.66691 29.01133 36048 ft 418 kts 326°
2026-04-28 13:53 32.71800 28.97825 36047 ft 418 kts 326°
2026-04-28 13:53 32.76909 28.94511 36047 ft 419 kts 326°
2026-04-28 13:54 32.82019 28.91185 36043 ft 419 kts 326°
2026-04-28 13:54 32.87101 28.87874 36045 ft 419 kts 326°
2026-04-28 13:55 32.92223 28.84555 36041 ft 420 kts 326°
2026-04-28 13:55 32.97349 28.81221 36040 ft 420 kts 326°
2026-04-28 13:56 33.02467 28.77863 36041 ft 420 kts 326°
2026-04-28 13:56 33.07595 28.74511 36043 ft 420 kts 326°
2026-04-28 13:57 33.11864 28.71722 36037 ft 421 kts 326°
2026-04-28 13:57 33.16990 28.68356 36042 ft 421 kts 326°
2026-04-28 13:58 33.22957 28.64430 36040 ft 421 kts 327°
2026-04-28 13:58 33.27266 28.61604 36036 ft 422 kts 327°
2026-04-28 13:59 33.32402 28.58220 36033 ft 422 kts 327°
2026-04-28 13:59 33.37516 28.54849 36031 ft 422 kts 327°
2026-04-28 14:00 33.42661 28.51451 36032 ft 422 kts 327°
2026-04-28 14:00 33.47807 28.48056 36031 ft 423 kts 327°
2026-04-28 14:01 33.52962 28.44651 36030 ft 423 kts 327°
2026-04-28 14:01 33.58113 28.41240 36032 ft 423 kts 327°
2026-04-28 14:02 33.63263 28.37820 36030 ft 423 kts 327°
2026-04-28 14:02 33.68417 28.34392 36029 ft 423 kts 327°
2026-04-28 14:03 33.73535 28.30982 36031 ft 423 kts 327°
2026-04-28 14:03 33.78686 28.27544 36031 ft 423 kts 327°
2026-04-28 14:04 33.83833 28.24097 36031 ft 423 kts 327°
2026-04-28 14:04 33.88976 28.20630 35923 ft 425 kts 330°
2026-04-28 14:05 33.94177 28.17118 36010 ft 433 kts 330°
2026-04-28 14:05 33.99493 28.13515 36010 ft 443 kts 330°
2026-04-28 14:06 34.04923 28.09826 36009 ft 451 kts 330°
2026-04-28 14:06 34.10409 28.06102 36008 ft 453 kts 330°
2026-04-28 14:07 34.15906 28.02372 36008 ft 453 kts 330°
2026-04-28 14:07 34.21456 27.98749 36011 ft 454 kts 333°
2026-04-28 14:08 34.27178 27.95521 36010 ft 454 kts 335°
2026-04-28 14:08 34.32940 27.92398 36011 ft 454 kts 335°
2026-04-28 14:09 34.38674 27.89192 36013 ft 454 kts 334°
2026-04-28 14:09 34.44382 27.85916 36014 ft 454 kts 334°
2026-04-28 14:10 34.50049 27.82648 36015 ft 454 kts 334°
2026-04-28 14:10 34.55764 27.79375 36015 ft 454 kts 334°
2026-04-28 14:11 34.61482 27.76112 36016 ft 454 kts 334°
2026-04-28 14:11 34.67199 27.72845 36017 ft 454 kts 334°
2026-04-28 14:12 34.72914 27.69569 36017 ft 454 kts 334°
2026-04-28 14:12 34.78620 27.66276 36015 ft 454 kts 334°
2026-04-28 14:13 34.84224 27.63044 35971 ft 433 kts 332°
2026-04-28 14:13 34.89606 27.59937 35988 ft 426 kts 332°
2026-04-28 14:14 34.94910 27.56867 35987 ft 425 kts 332°
2026-04-28 14:14 35.00247 27.53775 35985 ft 425 kts 332°
2026-04-28 14:15 35.05584 27.50685 35983 ft 425 kts 332°
2026-04-28 14:15 35.10922 27.47589 35990 ft 425 kts 332°
2026-04-28 14:16 35.16262 27.44489 35995 ft 425 kts 332°
2026-04-28 14:16 35.21598 27.41386 35995 ft 425 kts 332°
2026-04-28 14:17 35.26934 27.38279 35994 ft 425 kts 332°
2026-04-28 14:17 35.32266 27.35163 35993 ft 424 kts 332°
2026-04-28 14:18 35.37588 27.32050 35990 ft 424 kts 332°
2026-04-28 14:18 35.42907 27.28934 35987 ft 424 kts 332°
2026-04-28 14:19 35.48224 27.25815 35984 ft 423 kts 332°
2026-04-28 14:19 35.53533 27.22697 35986 ft 423 kts 332°
2026-04-28 14:20 35.58841 27.19574 35987 ft 423 kts 332°
2026-04-28 14:20 35.64160 27.16446 35992 ft 423 kts 332°
2026-04-28 14:21 35.69463 27.13318 35989 ft 423 kts 332°
2026-04-28 14:21 35.74775 27.10174 35998 ft 423 kts 332°
2026-04-28 14:22 35.80050 27.07054 36002 ft 423 kts 332°
2026-04-28 14:22 35.85397 27.03888 36002 ft 423 kts 332°
2026-04-28 14:23 35.90671 27.00760 36004 ft 424 kts 332°
2026-04-28 14:23 35.95984 26.97609 36005 ft 424 kts 332°
2026-04-28 14:24 36.01295 26.94443 36004 ft 424 kts 332°
2026-04-28 14:24 36.06603 26.91276 36008 ft 424 kts 332°
2026-04-28 14:25 36.11918 26.88106 36011 ft 424 kts 332°
2026-04-28 14:25 36.17235 26.84932 36007 ft 424 kts 332°
2026-04-28 14:26 36.22547 26.81748 36009 ft 424 kts 332°
2026-04-28 14:26 36.27823 26.78578 36007 ft 424 kts 332°
2026-04-28 14:27 36.33135 26.75396 36008 ft 424 kts 332°
2026-04-28 14:27 36.38447 26.72209 36008 ft 424 kts 332°
2026-04-28 14:28 36.43755 26.69005 36013 ft 424 kts 332°
2026-04-28 14:28 36.49062 26.65790 36008 ft 424 kts 332°
2026-04-28 14:29 36.54363 26.62583 36019 ft 424 kts 332°
2026-04-28 14:29 36.59668 26.59379 36015 ft 424 kts 332°
2026-04-28 14:30 36.64970 26.56172 36012 ft 424 kts 332°
2026-04-28 14:30 36.70268 26.52957 36008 ft 423 kts 332°
2026-04-28 14:31 36.75559 26.49739 36015 ft 423 kts 332°
2026-04-28 14:31 36.80851 26.46512 36006 ft 423 kts 332°
2026-04-28 14:32 36.86106 26.43306 36015 ft 423 kts 332°
2026-04-28 14:32 36.91395 26.40078 36019 ft 423 kts 332°
2026-04-28 14:33 36.96679 26.36849 36016 ft 423 kts 332°
2026-04-28 14:33 37.01966 26.33616 36011 ft 423 kts 332°
2026-04-28 14:34 37.09889 26.28760 36016 ft 423 kts 332°
2026-04-28 14:35 37.15171 26.25513 36017 ft 423 kts 332°
2026-04-28 14:35 37.20446 26.22261 36014 ft 423 kts 332°
2026-04-28 14:36 37.25720 26.18998 36022 ft 422 kts 332°
2026-04-28 14:36 37.30987 26.15735 36023 ft 422 kts 332°
2026-04-28 14:37 37.36266 26.12466 36029 ft 422 kts 332°
2026-04-28 14:37 37.41539 26.09202 36027 ft 422 kts 332°
2026-04-28 14:38 37.46804 26.05938 36032 ft 422 kts 332°
2026-04-28 14:38 37.52067 26.02659 36033 ft 422 kts 332°
2026-04-28 14:39 37.57290 25.99396 36033 ft 422 kts 332°
2026-04-28 14:39 37.62550 25.96116 36032 ft 421 kts 332°
2026-04-28 14:40 37.67799 25.92843 36036 ft 421 kts 332°
2026-04-28 14:40 37.73043 25.89563 36036 ft 420 kts 332°
2026-04-28 14:41 37.78282 25.86286 36037 ft 420 kts 332°
2026-04-28 14:41 37.83517 25.82997 36031 ft 420 kts 332°
2026-04-28 14:42 37.88716 25.79724 36038 ft 420 kts 332°
2026-04-28 14:42 37.93958 25.76422 36038 ft 420 kts 332°
2026-04-28 14:43 37.99193 25.73122 36044 ft 420 kts 332°
2026-04-28 14:43 38.04426 25.69821 36048 ft 420 kts 332°
2026-04-28 14:44 38.09654 25.66507 36051 ft 420 kts 332°
2026-04-28 14:44 38.14884 25.63188 36055 ft 420 kts 333°
2026-04-28 14:45 38.20117 25.59870 36061 ft 420 kts 333°
2026-04-28 14:45 38.25350 25.56546 36059 ft 420 kts 332°
2026-04-28 14:46 38.30570 25.53213 36067 ft 420 kts 332°
2026-04-28 14:46 38.35792 25.49874 36068 ft 420 kts 332°
2026-04-28 14:47 38.41013 25.46542 36067 ft 419 kts 332°
2026-04-28 14:47 38.46230 25.43212 36074 ft 419 kts 332°
2026-04-28 14:48 38.51440 25.39874 36076 ft 419 kts 332°
2026-04-28 14:48 38.56647 25.36527 36076 ft 419 kts 332°
2026-04-28 14:49 38.60966 25.33748 36077 ft 418 kts 332°
2026-04-28 14:49 38.66167 25.30396 36081 ft 418 kts 332°
2026-04-28 14:50 38.72206 25.26499 36079 ft 418 kts 332°
2026-04-28 14:50 38.76561 25.23693 36082 ft 418 kts 332°
2026-04-28 14:51 38.81710 25.20356 36082 ft 418 kts 332°
2026-04-28 14:51 38.86893 25.16988 36084 ft 417 kts 332°
2026-04-28 14:52 38.92107 25.13598 36086 ft 417 kts 332°
2026-04-28 14:52 38.97287 25.10238 36085 ft 417 kts 332°
2026-04-28 14:53 39.02428 25.06890 36086 ft 417 kts 332°
2026-04-28 14:53 39.07605 25.03517 36087 ft 417 kts 332°
2026-04-28 14:54 39.12771 25.00140 36085 ft 416 kts 332°
2026-04-28 14:54 39.17934 24.96753 36089 ft 416 kts 332°
2026-04-28 14:55 39.23097 24.93361 36092 ft 416 kts 332°
2026-04-28 14:55 39.28258 24.89970 36094 ft 416 kts 332°
2026-04-28 14:56 39.33423 24.86580 36091 ft 416 kts 332°
2026-04-28 14:56 39.38582 24.83181 36097 ft 416 kts 332°
2026-04-28 14:57 39.43740 24.79768 36099 ft 416 kts 332°
2026-04-28 14:57 39.48899 24.76353 36099 ft 416 kts 332°
2026-04-28 14:58 39.54058 24.72939 36097 ft 416 kts 332°
2026-04-28 14:58 39.59180 24.69543 36098 ft 417 kts 332°
2026-04-28 14:59 39.64342 24.66117 36104 ft 416 kts 332°
2026-04-28 14:59 39.69494 24.62685 36104 ft 417 kts 332°
2026-04-28 15:00 39.74651 24.59242 36105 ft 417 kts 332°
2026-04-28 15:00 39.79802 24.55794 36108 ft 417 kts 332°
2026-04-28 15:01 39.84958 24.52349 36108 ft 417 kts 332°
2026-04-28 15:01 39.90115 24.48891 36107 ft 417 kts 332°
2026-04-28 15:02 39.95266 24.45442 36110 ft 416 kts 332°
2026-04-28 15:02 40.00413 24.41984 36108 ft 416 kts 332°
2026-04-28 15:03 40.05555 24.38516 36108 ft 416 kts 332°
2026-04-28 15:03 40.10690 24.35051 36108 ft 415 kts 332°
2026-04-28 15:04 40.15822 24.31585 36106 ft 415 kts 332°
2026-04-28 15:04 40.20949 24.28111 36101 ft 415 kts 331°
2026-04-28 15:05 40.26066 24.24638 36100 ft 414 kts 331°
2026-04-28 15:05 40.31177 24.21162 36110 ft 414 kts 331°
2026-04-28 15:06 40.36282 24.17678 36103 ft 413 kts 331°
2026-04-28 15:06 40.41383 24.14190 36107 ft 413 kts 331°
2026-04-28 15:07 40.46475 24.10714 36107 ft 413 kts 331°
2026-04-28 15:07 40.51532 24.07261 36106 ft 412 kts 331°
2026-04-28 15:08 40.56618 24.03784 36102 ft 412 kts 331°
2026-04-28 15:08 40.61695 24.00304 36098 ft 411 kts 331°
2026-04-28 15:09 40.66764 23.96812 36098 ft 411 kts 331°
2026-04-28 15:09 40.71828 23.93321 36093 ft 410 kts 331°
2026-04-28 15:10 40.76887 23.89828 36088 ft 410 kts 330°
2026-04-28 15:10 40.81939 23.86328 36091 ft 410 kts 330°
2026-04-28 15:11 40.86993 23.82826 36087 ft 410 kts 330°
2026-04-28 15:11 40.92047 23.79322 36085 ft 410 kts 330°
2026-04-28 15:12 40.97098 23.75819 36081 ft 410 kts 330°
2026-04-28 15:12 41.02142 23.72305 36078 ft 410 kts 330°
2026-04-28 15:13 41.07186 23.68790 36075 ft 410 kts 330°
2026-04-28 15:13 41.12227 23.65267 36074 ft 410 kts 330°
2026-04-28 15:14 41.17271 23.61727 36068 ft 410 kts 330°
2026-04-28 15:14 41.22307 23.58201 36070 ft 409 kts 330°
2026-04-28 15:15 41.27344 23.54674 36069 ft 409 kts 330°
2026-04-28 15:15 41.32376 23.51140 36065 ft 409 kts 330°
2026-04-28 15:16 41.37407 23.47608 36063 ft 409 kts 333°
2026-04-28 15:16 41.42885 23.45465 36035 ft 416 kts 350°
2026-04-28 15:16 41.45786 23.45249 35771 ft 418 kts 354°
2026-04-28 15:17 41.48695 23.45117 35519 ft 419 kts 354°
2026-04-28 15:17 41.51611 23.44982 35270 ft 419 kts 354°
2026-04-28 15:17 41.54531 23.44841 35023 ft 420 kts 354°
2026-04-28 15:17 41.57450 23.44696 34778 ft 421 kts 354°
2026-04-28 15:18 41.60378 23.44547 34532 ft 421 kts 354°
2026-04-28 15:18 41.63304 23.44398 34297 ft 421 kts 354°
2026-04-28 15:18 41.66227 23.44247 34054 ft 421 kts 354°
2026-04-28 15:18 41.69155 23.44096 33783 ft 421 kts 354°
2026-04-28 15:19 41.72091 23.43942 33013 ft 424 kts 354°
2026-04-28 15:19 41.75047 23.43792 32152 ft 425 kts 355°
2026-04-28 15:19 41.77983 23.43649 31627 ft 419 kts 355°
2026-04-28 15:19 41.80880 23.43508 31051 ft 414 kts 355°
2026-04-28 15:20 41.83745 23.43364 30488 ft 410 kts 355°
2026-04-28 15:20 41.86583 23.43220 29896 ft 406 kts 355°
2026-04-28 15:20 41.89389 23.43078 29327 ft 401 kts 355°
2026-04-28 15:20 41.92163 23.42939 28798 ft 396 kts 355°
2026-04-28 15:21 41.94899 23.42801 28248 ft 391 kts 355°
2026-04-28 15:21 41.97607 23.42665 27729 ft 387 kts 355°
2026-04-28 15:21 42.00286 23.42532 27213 ft 383 kts 355°
2026-04-28 15:21 42.02934 23.42398 26699 ft 380 kts 355°
2026-04-28 15:22 42.05563 23.42264 26199 ft 376 kts 355°
2026-04-28 15:22 42.08178 23.42128 25685 ft 374 kts 355°
2026-04-28 15:22 42.10770 23.41992 25223 ft 371 kts 354°
2026-04-28 15:22 42.13340 23.41858 24737 ft 369 kts 355°
2026-04-28 15:23 42.15903 23.41726 24280 ft 367 kts 354°
2026-04-28 15:23 42.18446 23.41594 23825 ft 364 kts 354°
2026-04-28 15:23 42.20975 23.41462 23342 ft 362 kts 354°
2026-04-28 15:23 42.23479 23.41332 22903 ft 359 kts 354°
2026-04-28 15:24 42.25959 23.41205 22470 ft 354 kts 354°
2026-04-28 15:24 42.27587 23.41127 22178 ft 353 kts 356°
2026-04-28 15:24 42.27931 23.41125 22112 ft 352 kts 359°
2026-04-28 15:24 42.29904 23.41306 21673 ft 354 kts
2026-04-28 15:25 42.32280 23.42124 21304 ft 352 kts 13°
2026-04-28 15:25 42.34609 23.43090 20864 ft 349 kts 13°
2026-04-28 15:25 42.36931 23.44037 20405 ft 348 kts 12°
2026-04-28 15:25 42.39216 23.44963 19952 ft 347 kts 12°
2026-04-28 15:26 42.41523 23.45896 19491 ft 346 kts 12°
2026-04-28 15:26 42.43823 23.46826 19025 ft 345 kts 12°
2026-04-28 15:26 42.46124 23.47756 18556 ft 345 kts 12°
2026-04-28 15:26 42.48434 23.48688 18013 ft 346 kts 13°
2026-04-28 15:27 42.50734 23.49620 17516 ft 345 kts 13°
2026-04-28 15:27 42.53028 23.50551 17020 ft 343 kts 13°
2026-04-28 15:27 42.55314 23.51477 16557 ft 342 kts 13°
2026-04-28 15:27 42.57470 23.52742 16451 ft 337 kts 31°
2026-04-28 15:28 42.59121 23.54944 16338 ft 334 kts 53°
2026-04-28 15:28 42.60037 23.57811 16179 ft 332 kts 76°
2026-04-28 15:28 42.60129 23.60910 16018 ft 328 kts 93°
2026-04-28 15:28 42.59934 23.63958 15859 ft 321 kts 94°
2026-04-28 15:29 42.59737 23.66974 15155 ft 325 kts 94°
2026-04-28 15:29 42.59540 23.70063 14309 ft 332 kts 94°
2026-04-28 15:29 42.59343 23.73206 13420 ft 337 kts 94°
2026-04-28 15:29 42.59145 23.76393 12473 ft 341 kts 94°
2026-04-28 15:30 42.58946 23.79607 11548 ft 343 kts 94°
2026-04-28 15:30 42.58782 23.82837 10639 ft 343 kts 87°
2026-04-28 15:30 42.59350 23.85915 9788 ft 335 kts 57°
2026-04-28 15:30 42.60884 23.88115 9214 ft 313 kts 27°
2026-04-28 15:31 42.62861 23.89016 8803 ft 292 kts
2026-04-28 15:31 42.64804 23.88862 8358 ft 273 kts 336°
2026-04-28 15:31 42.66233 23.87394 8008 ft 251 kts 304°
2026-04-28 15:31 42.66909 23.85309 7720 ft 236 kts 281°
2026-04-28 15:32 42.67070 23.83134 7410 ft 227 kts 277°
2026-04-28 15:32 42.67160 23.81728 7201 ft 226 kts 277°
2026-04-28 15:32 42.67345 23.78887 6778 ft 225 kts 277°
2026-04-28 15:32 42.67483 23.76771 6453 ft 225 kts 277°
2026-04-28 15:33 42.67617 23.74680 6150 ft 225 kts 277°
2026-04-28 15:33 42.67749 23.72566 5845 ft 224 kts 277°
2026-04-28 15:33 42.67880 23.70450 5550 ft 224 kts 278°
2026-04-28 15:33 42.68006 23.68377 5251 ft 217 kts 277°
2026-04-28 15:34 42.68129 23.66369 4978 ft 209 kts 278°
2026-04-28 15:34 42.68247 23.64461 4718 ft 197 kts 278°
2026-04-28 15:34 42.68355 23.62701 4470 ft 174 kts 279°
2026-04-28 15:34 42.68452 23.61135 4236 ft 160 kts 280°
2026-04-28 15:35 42.68515 23.60135 4092 ft 156 kts 279°
2026-04-28 15:35 42.68687 23.57415 3710 ft 152 kts 280°
2026-04-28 15:35 42.68776 23.55976 3511 ft 154 kts 280°
2026-04-28 15:36 42.68865 23.54528 3317 ft 151 kts 280°
2026-04-28 15:36 42.68950 23.53123 3110 ft 148 kts 279°
2026-04-28 15:36 42.69035 23.51744 2915 ft 144 kts 279°
2026-04-28 15:36 42.69120 23.50405 2744 ft 141 kts 281°
2026-04-28 15:37 42.69205 23.49086 2516 ft 141 kts 278°
2026-04-28 15:37 42.69282 23.47752 2267 ft 144 kts 280°
2026-04-28 15:37 42.69352 23.46375 2117 ft 147 kts 280°
2026-04-28 15:37 42.69447 23.44991 1950 ft 149 kts 279°
2026-04-28 15:38 42.69540 23.43573 1761 ft 146 kts 280°
2026-04-28 15:38 42.69613 23.42364 1752 ft 105 kts 275°
2026-04-28 15:38 42.69632 23.41726 1750 ft 38 kts 253°
2026-04-28 15:38 42.69537 23.41422 1744 ft 29 kts 244°
2026-04-28 15:39 42.69453 23.41226 1751 ft 16 kts 213°
2026-04-28 15:39 42.69356 23.41187 1749 ft 14 kts 192°
2026-04-28 15:39 42.69271 23.41163 1753 ft 12 kts 192°
2026-04-28 15:39 42.69201 23.41143 1753 ft 11 kts 192°
2026-04-28 15:40 42.69135 23.41109 1753 ft 9 kts 227°
2026-04-28 15:40 42.69096 23.40968 1753 ft 16 kts 252°
2026-04-28 15:40 42.69083 23.40914 1748 ft 0 kts 252°
2026-04-28 15:41 42.69076 23.40880 1748 ft 15 kts 252°
2026-04-28 15:41 42.69074 23.40710 1753 ft 18 kts 285°
2026-04-28 15:41 42.69063 23.40606 1750 ft 7 kts 198°
2026-04-28 15:41 42.69019 23.40588 1747 ft 0 kts 197°